Main page
METAR-TAF:

METAR-TAF

Airports :

Oil platform

P11-b, Netherlands

latitude: 52-21-36N, longitude: 3-20-30E, elevation: 24 m

Current weather observation

The report was made 15 minutes ago, at 13:55 UTC
Wind 8 kt from the West/Northwest, varying between West and North
Temperature 16°C
Humidity 94%
Pressure 1014 hPa
Visibility: 3800 m
light rain

METAR: EHPG 161355Z AUTO 30008KT 260V350 3800 -RA FEW003/// SCT009/// BKN015/// 16/15 Q1014 W///H///

Time: 16:10 (14:10 UTC)


TAF: missing

Weather observations and forecasts of more than 4000 airports (METAR and TAF reports).

The available stations are represented by yellow and red dots on the map.

Hover mouse over dot to see the name of the station.

Then click to see weather observations and forecasts.

To change the map : click on the green buttons with a black cross to zoom in, on the green button with a dash to zoom out, or on the green arrows for adjacent maps.


METAR-TAF: